Tracking 29892 objects as of 21-Nov-2024
HD Live streaming from Space Station
objects crossing your sky now

STARLINK-5924

Track STARLINK-5924 now!
10-day predictions
STARLINK-5924 is classified as:


NORAD ID: 55963
Int'l Code: 2023-037BB
Perigee: 577.1 km
Apogee: 581.3 km
Inclination: 70.0 °
Period: 96.1 minutes
Semi major axis: 6950 km
RCS: Unknown
Launch date: March 17, 2023
Source: United States (US)
Launch site: AIR FORCE WESTERN TEST RANGE (AFWTR)
Your satellite tracking list
Your tracking list is empty




NASA's NSSDC Master Catalog

Two Line Element Set (TLE):
1 55963U 23037BB  24326.15802229  .00000711  00000-0  67369-4 0  9993
2 55963  70.0006  18.3629 0002976 269.1474  90.9344 14.98328480 93883
Source of the keplerian elements: AFSPC